Location: El Gallo
(32.4380°N, 116.9347°W)
Time: 10:41:05
(UTC+00:00)

Daily predictions for brighter satellites

Satellite Brightness Start Highest point End
(mag) Time Altitude Azimuth Time Altitude Azimuth Time Altitude Azimuth
Cosmos 2346 Rocket 4.4 12:00:01 10° N 12:06:07 86° E 12:12:15 10° S
Tiangong -0.4 12:08:45 23° SSE 12:08:45 23° SSE 12:10:18 10° SE
Helios 1B rocket 4.3 12:05:01 10° NNW 12:06:18 18° NNW 12:06:18 18° NNW
METEOR-M 4.5 12:04:14 10° N 12:09:13 41° WNW 12:09:54 39° W
Cosmos 1515 Rocket 3.5 12:09:48 45° SW 12:10:47 57° W 12:15:11 10° N
Cosmos 1536 2.9 12:06:58 10° NNW 12:13:55 17° SSW 12:14:51 10° S
Intercosmos 24 Rocket 4.2 12:06:52 10° NNW 12:11:17 66° W 12:14:50 10° S
USA 234 3.2 12:04:52 10° NE 12:11:26 90° NW 12:16:10 20° SW
CZ-2C R/B 2.4 12:06:46 10° S 12:11:56 81° WSW 12:17:14 10° NNW
Cosmos 1725 Rocket 4.2 12:06:17 10° S 12:12:32 74° E 12:18:51 10° N
CZ-2C R/B 4.1 12:09:26 10° NNE 12:13:02 41° E 12:16:42 10° S
Cosmos 44 Rocket 4.4 12:13:45 25° NW 12:13:45 25° NW 12:17:09 10° N
IRS-P3 4.4 12:08:20 10° N 12:13:22 44° WNW 12:15:05 33° WSW
H-2A R/B 3.1 12:11:23 10° NNE 12:15:00 59° E 12:18:37 10° S
COSMOS 2406 4.2 12:15:06 27° WNW 12:15:06 27° WNW 12:19:52 10° N
Meteor 1-11 Rocket 3.9 12:09:27 10° NNW 12:15:15 53° W 12:20:57 10° S
Cosmos 1697 Rocket 2.8 12:10:14 10° NNW 12:15:37 48° WSW 12:21:01 10° S
YAOGAN 6 2.6 12:13:44 10° N 12:17:17 56° WNW 12:17:39 52° WSW
BREEZE M DEB (TANK) 4.4 12:20:55 15° NNW 12:20:59 15° NNW 12:23:08 10° NNE
CZ-2D R/B 3.8 12:18:02 10° N 12:21:46 40° WNW 12:22:11 38° W
Cosmos 2173 Rocket 4.1 12:18:06 10° SSW 12:23:59 47° W 12:29:51 10° N
Cosmos 1470 Rocket 3.6 12:20:33 10° NNW 12:24:45 51° W 12:28:59 10° SSW
Cosmos 192 4.3 12:25:34 10° SSW 12:30:30 88° ESE 12:35:29 10° NNE
Meteor 2-13 Rocket 4.4 12:24:50 10° NNW 12:30:52 62° W 12:36:55 10° S
Meteor 1-19 Rocket 4.2 12:28:14 10° SSW 12:33:33 53° W 12:38:50 10° N
Lacrosse 5 rocket 4.3 12:35:01 10° SSE 12:37:58 17° ESE 12:40:56 10° ENE
CZ-4C R/B 3.5 12:38:14 10° SSE 12:42:17 81° ENE 12:46:34 10° N
CENTAUR R/B 3.1 12:41:09 19° W 12:44:23 33° NW 12:50:15 10° NNE
FALCON 9 R/B 1.6 12:44:23 20° SW 12:44:42 21° SSW 12:46:37 10° SSE
CZ-2C R/B 4.4 12:44:22 10° NW 12:44:38 10° NW 12:44:38 10° NW
Okean 1 4.2 12:43:49 15° SW 12:46:20 27° W 12:49:48 10° NNW
CZ-2C R/B 3.4 12:42:49 10° N 12:48:20 52° WNW 12:53:33 10° SSW
COSMO-SKYMED 1 3.8 12:45:56 10° SSE 12:50:04 45° ENE 12:54:13 10° N
CZ-3 R/B 3.2 12:29:58 17° WSW 12:50:15 70° S 12:57:08 10° E
ASTRO E2 3.1 12:49:32 18° W 12:52:06 45° SSW 12:55:50 10° ESE
Cosmos 1707 Rocket 4.1 12:51:06 10° S 12:55:24 61° E 12:59:42 10° NNE
Cosmos 1980 Rocket 2.5 12:50:51 10° NW 12:56:08 44° WSW 13:01:24 10° S
Cosmos 1378 4.4 12:56:09 10° SW 12:58:50 20° WNW 13:01:36 10° NNW
Meteor 2-9 Rocket 4.4 12:55:12 10° NNW 13:00:38 49° W 13:05:55 10° SSW
Cosmos 1939 Rocket 4.1 12:57:01 10° NNE 13:00:53 47° E 13:04:41 10° S
CZ-4B R/B 3.5 12:57:59 10° N 13:03:15 76° WNW 13:08:30 10° SSW
Cosmos 1741 Rocket 3.9 13:00:19 10° NNW 13:05:30 69° WSW 13:10:40 10° S
Cosmos 2369 4.3 13:00:54 10° NW 13:05:54 33° WSW 13:10:52 10° SSW
Meteor 1-31 Rocket 3.9 13:02:32 10° NNE 13:06:15 48° E 13:09:57 10° S
NOSS 3-2 (C) 3.7 13:02:05 10° WSW 13:07:00 39° NW 13:12:32 10° NNE
Cosmos 1869 Rocket 3.5 13:02:44 10° NNW 13:07:07 67° W 13:11:27 10° S
Cosmos 2061 Rocket 4.4 13:04:35 10° SSW 13:10:17 38° W 13:16:00 10° NNW
Cosmos 2278 3.7 13:07:29 10° NNW 13:13:03 64° WSW 13:18:37 10° S
Skynet4D Del rocket 4.2 13:09:07 10° WSW 13:14:43 49° S 13:19:54 10° ESE
Cosmos 1302 Rocket 4.1 13:09:40 10° SSW 13:14:52 62° WNW 13:20:07 10° N
SL-16 R/B 2.9 13:10:17 10° NNW 13:15:53 59° ENE 13:21:27 10° SSE
USA 276 2.8 13:17:01 10° WSW 13:19:48 35° NW 13:22:38 10° NNE
Cosmos 1975 3.0 13:16:36 10° NNW 13:20:26 49° W 13:24:14 10° SSW
ATLAS 3B CENTAUR R/B 4.3 13:10:43 10° W 13:22:29 73° S 13:35:25 10° E
USA 238 DEB 4.1 13:17:00 10° WSW 13:22:50 38° NW 13:28:58 10° NNE
USA 238 4.1 13:17:06 10° WSW 13:22:56 38° NW 13:29:05 10° NNE
